Location: Carabito
(9.8355°N, 67.9249°W)
Time: 21:57:01
(UTC+00:00)

Cosmos 2233 Rocket - Pass Details

Date: 23 May 2024
Orbit: 954 x 989 km, 82.9° (Epoch: 22 June)

Event Time Altitude Azimuth Distance (km) Brightness Sun altitude
Rises 00:00:49 0° 352° (N) 3,689 7.5 -17.5°
Reaches altitude 10° 00:03:20 10° 350° (N) 2,741 6.8 -18.1°
Maximum altitude 00:09:36 71° 268° (W) 1,037 4.2 -19.5°
Drops below altitude 10° 00:15:51 10° 184° (S) 2,733 6.1 -20.9°
Enters shadow 00:17:40 - 182° (S) 3,415 6.6 -21.3°
